Regional Weather Roundup
Issued by NWS

Home | Current Version | Previous Version | Graphics & Text | Print | Product List | Glossary On
Versions: 1 2 3 4 5 6 7 8 9 10 11 12 13 14 15 16 17 18 19 20 21 22 23 24 25 26 27 28 29 30 31 32 33 34 35 36 37 38 39 40 41 42 43 44 45 46 47 48 49 50
342
ASUS45 KCYS 260010
RWRWY

WYOMING REGIONAL WEATHER ROUNDUP
NATIONAL WEATHER SERVICE CHEYENNE WY
600 PM MDT MON JUL 25 2016

NOTE:  "FAIR" INDICATES FEW OR NO CLOUDS BELOW 12,000 FEET
WITH NO SIGNIFICANT WEATHER AND/OR OBSTRUCTIONS TO VISIBILITY.

WYZ001-260100-
YELLOWSTONE NATIONAL PARK

CITY           SKY/WX    TMP DP  RH WIND       PRES   REMARKS
LK YELLOWSTONE   N/A     77  21  12 SW9       30.34S
6HR MIN TEMP:  68; 6HR MAX TEMP:  80;

W YELLOWSTONE  NOT AVBL

$$
WYZ002>013-054>058-071-098>099-260100-
NORTHERN WYOMING

CITY           SKY/WX    TMP DP  RH WIND       PRES   REMARKS
JACKSON        SUNNY     86  27  11 SW10      30.19F
CODY           FAIR      88  37  16 NE9       30.06S
GREYBULL       FAIR      97  22   7 SW10      29.94F HX  90
6HR MIN TEMP:  88; 6HR MAX TEMP:  99;

WORLAND        FAIR      95  29   9 N6        29.98F
6HR MIN TEMP:  86; 6HR MAX TEMP:  97;

SHERIDAN       FAIR      97  34  11 NW8       29.98S HX  91
6HR MIN TEMP:  91; 6HR MAX TEMP:  99;

BUFFALO        FAIR      94  32  11 N13       30.06S
6HR MIN TEMP:  91; 6HR MAX TEMP:  97;

GILLETTE       FAIR      93  32  11 E8        30.02S
6HR MIN TEMP:  89; 6HR MAX TEMP:  96;

HULETT         FAIR      93  39  15 E9        30.04S
NEWCASTLE      FAIR      93  34  12 SE7       30.04S

$$
WYZ014>020-022>026-101>103-260100-
CENTRAL WYOMING

CITY           SKY/WX    TMP DP  RH WIND       PRES   REMARKS
BIG PINEY      FAIR      88  25  10 W13G25    30.23S
6HR MIN TEMP:  80; 6HR MAX TEMP:  90;

PINEDALE       FAIR      82  25  12 NE7       30.24F
DUBOIS         FAIR      81  21  11 NW9G22    30.23S
LANDER         FAIR      90  30  11 CALM      30.08S
6HR MIN TEMP:  84; 6HR MAX TEMP:  95;

RIVERTON       FAIR      91  19   7 W8        30.07F
                                      6HR PCP: TRACE;

CASPER         FAIR      94  18   6 W12G33    30.07F
6HR MIN TEMP:  84; 6HR MAX TEMP:  97;

DOUGLAS          N/A    N/A N/A N/A MISG      30.05F

$$
WYZ021-027>030-104>119-260100-
SOUTHERN WYOMING

CITY           SKY/WX    TMP DP  RH WIND       PRES   REMARKS
EVANSTON       FAIR      88  21   8 W20G30    30.26R
6HR MIN TEMP:  82; 6HR MAX TEMP:  91;

KEMMERER         N/A     86  23  10 W21G26    30.26S
FORT BRIDGER   FAIR      90  20   7 W13G22    30.27R
ROCK SPRINGS   FAIR      84  27  12 SW22G32   30.23R
6HR MIN TEMP:  82; 6HR MAX TEMP:  90;

DIXON          FAIR      87  29  12 W6        30.23S
RAWLINS        FAIR      88  20   8 NW7G17    30.22F
6HR MIN TEMP:  86; 6HR MAX TEMP:  92;

SARATOGA       FAIR      82  28  14 NW8       30.25F
LARAMIE        FAIR      86  17   8 N14       30.26S
6HR MIN TEMP:  82; 6HR MAX TEMP:  89;

CHEYENNE       FAIR      87  45  23 SE13      30.17F
6HR MIN TEMP:  79; 6HR MAX TEMP:  89;

TORRINGTON     FAIR      93  50  23 SE13G21   30.01S HX  90
6HR MIN TEMP:  84; 6HR MAX TEMP:  96;

PINE BLUFFS    FAIR      86  57  37 SE16G22   30.12F

$$




USA.gov is the U.S. government's official web portal to all federal, state and local government web resources and services.